Dauntless Aviation
Airports Europe United Kingdom
EGLC
LCY

London City

London, UNITED KINGDOM

Airport Info
Suggest Updated Information for this Airport

Location

Latitude / Longitude: 51°30'18"N / 0°3'12"E
  51°30.3'N / 0°3.21'E
  51.5050 / 0.0535

Nearby radio navigation aids

LCY CITY NDB on field.

Runway Information

Runway 10 /28

Dimensions: 4948 x 98 ft.
Surface: ASP
 
Runway 10
Runway 28
Latitude: 51.505528 51.504922
Longitude: 0.045753 0.064953
Elevation: 16 ft. 16 ft.
Runway true heading: 91.1 271.1
 

Instrument Procedures

  Aerodrome Chart
  Aircraft Parking/Docking Chart
  Control Zone and Control Area Chart

STARs (Standard Terminal Arrivals)

  Standard Instrument Arrival Coding Tables Rwy 09/27 JACKO 1L/ 1M
  Standard Instrument Arrival Coding Tables Rwy 09/27 GODLU 1G/ 1H
  Standard Instrument Arrival Coding Tables Rwy 09/27 GODLU 1J/ 1K/ 1L
  RNAV1 (DME/DME or GNSS) Transition Arrival Chart - Instrument Rwy 27 LAVNO 1G 1J
  RNAV1 (DME/DME or GNSS) Transition Arrival Chart - Instrument Rwy 09 ODLEG 1G 1J
  RNAV5 (VOR/DME/ DME/DME or GNSS) STAR - Instrument Rwy 09/27 JACKO 1A 1B 1D
  RNAV5 (VOR/DME/ DME/DME or GNSS) STAR - Instrument Rwy 09/27 GODLU 1A 1C 1D 1F
  RNAV5 (VOR/DME/ DME/DME or GNSS) STAR - Instrument Rwy 09/27 JACKO 1H
  RNAV5 (VOR/DME/ DME/DME or GNSS) STAR - Instrument Rwy 09/27 JACKO 1L 1M
  RNAV5 (VOR/DME/ DME/DME or GNSS) STAR - Instrument Rwy 09/27 GODLU 1G 1H
  RNAV5 (VOR/DME/ DME/DME or GNSS) STAR - Instrument Rwy 09/27 GODLU 1J 1K 1L
  Standard Instrument Arrival Coding Tables Rwy 09/27 JACKO 1A/ 1B/ 1D
  Standard Instrument Arrival Coding Tables Rwy 09/27 GODLU 1A/ 1C/ 1D/ 1F
  Standard Instrument Arrival Coding Tables Rwy 09/27 JACKO 1H

IAPs (Instrument Approach Procedures)

  ILS (5.5°GP) /DME/NDB (L) Rwy 09 (Aircraft CAT A/B/C)
  LOC/DME/NDB (L) Rwy 09
  LOC/DME/NDB (L) Rwy 27 (Aircraft CAT A/B/C)
  Visual Approach Profile Rwy 27
  Visual Approach Profile Rwy 09
  ILS (5.5°GP) /DME/NDB (L) Rwy 27 (Aircraft CAT A/B/C)
  Aerodrome Information (Textual)
  Transition Coding Tables Rwy 27 LAVNO 1G/ 1J
  Transition Coding Tables Rwy 09 ODLEG 1G 1J
  RNAV Hold Coding Tables GODLU/ OKVAP/ JACKO/ ROPMU
  ATC Surveillance Minimum Altitude Chart

Departure Procedures

  Standard Instrument Departure Coding Tables Rwy 09 BPK 1H/ CPT 1H
  Standard Instrument Departure Coding Tables Rwy 09 CLN 1H/ Rwy 27 CLN 1A
  SID - Instrument (SID) Rwy 09/27 DVR 5T 5U LYD 5T 5U
  SID - Instrument (SID) Rwy 09/27 CLN 7T 7U
  SID - Instrument (SID) Rwy 09/27 BPK 5T 5U CPT 6T 6U
  RNAV1 (DME/DME or GNSS) SID - Instrument (SID) Rwy 27 BPK 1A CPT 1A
  RNAV1 (DME/DME or GNSS) SID - Instrument (SID) Rwy 09 BPK 1H CPT 1H
  RNAV1 (DME/DME or GNSS) SID - Instrument (SID) Rwy 09/27 CLN 1A 1H
  Standard Instrument Departure Coding Tables Rwy 27 BPK 1A/ CPT 1A
  RNAV1 (DME/DME or GNSS) SID - Instrument (SID) Rwy 09/27 EKNIV 1A 1H
  Standard Instrument Departure Coding Tables Rwy 09 EKNIV 1H/ Rwy 27 EKNIV 1A
Satellite photo at:
Airport distance calculator
From:
Weather Reports

METAR

EGLC

EGLC 281020Z AUTO 30008KT 280V350 9999 BKN012 OVC031 17/14 Q0997
EGKB
11.4nm S
EGKB 281020Z 34006KT 300V010 9999 BKN009 16/14 Q0997
EGWU
17.8nm W
EGWU 280950Z 01008KT 9999 BKN013 OVC022 16/13 Q0997 NOSIG
EGLL
18.9nm SW
EGLL 281020Z AUTO 36008KT 330V030 9999 BKN013 OVC024 17/13 Q0998 BECMG BKN015
EGSS
23.5nm N
EGSS 281020Z AUTO 32008KT 9999 OVC004 14/14 Q0997 RESHRA
EGKK
23.8nm S
EGKK 281020Z 33007KT 280V360 9999 FEW015 BKN019 18/14 Q0997

TAF

EGLC
TAF EGLC 280802Z 2809/2818 35005KT 9999 BKN006 BECMG 2809/2812 29010KT BKN014 BECMG 2812/2815 BKN020
EGKB
11.4nm S
TAF EGKB 280802Z 2809/2818 32004KT 2000 -RA BR BKN004 BECMG 2809/2811 9999 NSW BKN010 BECMG 2811/2814 BKN020 PROB30 TEMPO 2811/2818 8000 -SHRA
EGWU
17.8nm W
TAF EGWU 280741Z 2809/2903 02006KT 9999 BKN008 BECMG 2811/2813 SCT015 BECMG 2819/2822 BKN012
EGLL
18.9nm SW
TAF EGLL 280457Z 2806/2912 35006KT 9999 BKN006 PROB30 TEMPO 2806/2809 4000 -RADZ BR BKN004 BECMG 2809/2812 BKN022 BECMG 2815/2818 29010KT PROB30 2900/2908 8000 BKN010
EGSS
23.5nm N
TAF AMD EGSS 281027Z 2810/2912 36009KT 9999 BKN007 TEMPO 2810/2812 5000 SHRA BKN004 BECMG 2812/2815 30012KT PROB30 TEMPO 2812/2821 FEW007 BKN015 BECMG 2900/2903 24008KT BECMG 2906/2909 BKN022
EGKK
23.8nm S
TAF AMD EGKK 280702Z 2807/2912 31005KT 9999 SCT010 TEMPO 2807/2811 6000 -RADZ BKN010 PROB30 TEMPO 2807/2808 4000 RA BKN004 PROB30 TEMPO 2812/2819 6000 SHRA TEMPO 2822/2909 BKN010
Safelog

 

Dauntless Aviation

© 2007-2017 Dauntless Aviation, all rights reserved
Information provided via PilotNav comes from a variety of official and unofficial data sources. As errors are possible, do not use PilotNav for primary flight planning purposes. Verify any information that you receive via PilotNav with current and canonical charts and other official documents. The material in this database is subject to database copyrights held by Dauntless Aviation and may not be copied without the express permission of Dauntless Aviation - licenses for use of part of all of this data are available for purchase; enquire via the Dauntless Aviation helpdesk. A number of mechanisms and markers exist in the database to protect against and identify infringement / copyright. Automated queries against this website are stictly prohibited, and all activity is logged and analyzed.